Weather History for Central Park, NY

Change the Weather History Date:

Thursday, February 23, 2012

  Actual Average Record
Temperature  
Mean Temperature 52 °F 37 °F  
Max Temperature 58 °F 43 °F 70 °F (1985)
Min Temperature 46 °F 30 °F 5 °F (1889)
Degree Days  
Heating Degree Days 13 28  
Month to date heating degree days 553 694  
Since 1 July heating degree days 2731 3383  
Cooling Degree Days 0 0  
Month to date cooling degree days 0 0  
Year to date cooling degree days 0 0  
Growing Degree Days 2 (Base 50)    
Moisture  
Dew Point 32 °F    
Average Humidity 57    
Maximum Humidity 80    
Minimum Humidity 33    
Precipitation  
Precipitation 0.00 in 0.12 in 1.38 in (1928)
Month to date precipitation 0.40 2.50  
Year to date precipitation 3.63 6.15  
Snow  
Snow 0.00 in 0.40 in 4.80 in (1972)
Month to date snowfall 0.2 7.8  
Since 1 July snowfall 7.4 19.9  
Snow Depth 0.00 in    
Sea Level Pressure  
Sea Level Pressure 29.55 in    
Wind  
Wind Speed 8 mph (West)    
Max Wind Speed 21 mph    
Max Gust Speed 30 mph    
Visibility 10 miles    
Events      
T = Trace of Precipitation, MM = Missing Value Source: NWS Daily Summary

Daily Weather History Graph

Daily Weather History Graph

Search for Another Location

Airport:

Trip Planner

Search our weather history database for the weather conditions in past years. The results will help you decide how hot, cold, wet, or windy it might be!

Date:

Astronomy

Feb. 23, 2012 Rise Set
Actual Time 6:39 AM EST 5:39 PM EST
Civil Twilight 6:11 AM EST 6:07 PM EST
Nautical Twilight 5:40 AM EST 6:39 PM EST
Astronomical Twilight 5:08 AM EST 7:10 PM EST
Moon 7:03 AM EST (2/23) 7:43 PM EST (2/23)
Length of Visible Light 11h 55m
Length of Day
10h 59m
Waxing Crescent, 3% of the Moon is Illuminated
Feb 23
Waxing Crescent
Feb 29
First Quarter
Mar 8
Full
Mar 14
Last Quarter
Mar 22
New

Hourly Weather History & Observations

Time (EST) Temp. Windchill Dew Point Humidity Pressure Visibility Wind Dir Wind Speed Gust Speed Precip Events Conditions
12:51 AM 48.0 °F - 42.1 °F 80% 29.46 in 10.0 mi SSE 3.5 mph - N/A   Clear
1:51 AM 48.0 °F - 42.1 °F 80% 29.43 in 10.0 mi Calm Calm - N/A   Clear
2:51 AM 50.0 °F - 41.0 °F 71% 29.41 in 10.0 mi SSW 9.2 mph - N/A   Partly Cloudy
3:51 AM 51.1 °F - 39.0 °F 63% 29.38 in 10.0 mi WSW 8.1 mph - N/A   Clear
4:51 AM 50.0 °F - 39.9 °F 68% 29.39 in 10.0 mi Variable 5.8 mph - N/A   Scattered Clouds
5:51 AM 48.9 °F - 39.0 °F 69% 29.41 in 10.0 mi Variable 6.9 mph - N/A   Scattered Clouds
6:51 AM 48.9 °F - 37.9 °F 66% 29.41 in 10.0 mi SW 8.1 mph - N/A   Mostly Cloudy
7:51 AM 50.0 °F - 37.0 °F 61% 29.44 in 10.0 mi SW 9.2 mph - N/A   Mostly Cloudy
8:51 AM 52.0 °F - 37.0 °F 57% 29.46 in 10.0 mi WSW 10.4 mph 17.3 mph N/A   Clear
9:51 AM 54.0 °F - 36.0 °F 51% 29.47 in 10.0 mi West 8.1 mph - N/A   Clear
10:51 AM 55.9 °F - 30.9 °F 39% 29.48 in 10.0 mi West 15.0 mph 23.0 mph N/A   Partly Cloudy
11:51 AM 57.0 °F - 30.0 °F 36% 29.49 in 10.0 mi West 17.3 mph 26.5 mph N/A   Clear
12:51 PM 57.0 °F - 28.0 °F 33% 29.51 in 10.0 mi West 10.4 mph 26.5 mph N/A   Mostly Cloudy
1:51 PM 55.0 °F - 30.0 °F 38% 29.54 in 10.0 mi WNW 9.2 mph 16.1 mph N/A   Mostly Cloudy
2:51 PM 54.0 °F - 27.0 °F 35% 29.57 in 10.0 mi West 9.2 mph 20.7 mph N/A   Clear
3:51 PM 53.1 °F - 26.1 °F 35% 29.61 in 10.0 mi West 8.1 mph - N/A   Clear
4:51 PM 53.1 °F - 26.1 °F 35% 29.65 in 10.0 mi Variable 6.9 mph - N/A   Clear
5:51 PM 51.1 °F - 26.1 °F 38% 29.68 in 10.0 mi Variable 4.6 mph - N/A   Clear
6:51 PM 50.0 °F - 25.0 °F 38% 29.70 in 10.0 mi Variable 4.6 mph - N/A   Clear
7:51 PM 48.9 °F - 25.0 °F 39% 29.71 in 10.0 mi Variable 4.6 mph - N/A   Clear
8:51 PM 48.0 °F - 26.1 °F 42% 29.74 in 10.0 mi NE 8.1 mph - N/A   Clear
9:51 PM 48.0 °F - 25.0 °F 41% 29.76 in 10.0 mi NE 6.9 mph - N/A   Mostly Cloudy
10:51 PM 46.9 °F - 24.1 °F 41% 29.77 in 10.0 mi NE 11.5 mph - N/A   Overcast
11:51 PM 46.0 °F 41.0 °F 25.0 °F 44% 29.75 in 10.0 mi East 10.4 mph - N/A   Overcast